User: anonymous   Login
Location: ?
(35.4554°N, 139.3092°E)
Time: 04:18:38
(UTC+00:00)
Language:

SL-4 R/B - Orbit

View from above orbital plane
View from above orbital plane
View from above satellite
View from above satellite

Ground track
Ground track

The orbit data is extracted from the following two-line orbital elements,

1 39679U 14021B   21169.31826152  .00000130  00000-0  24465-4 0  9998
2 39679  51.6140 208.8791 0170412 134.0118 227.5041 15.07002634394185
Epoch (UTC): 18 June 2021 07:38:17
Eccentricity: 0.0170412
inclination: 51.6140°
perigee height: 427 km
apogee height: 663 km
right ascension of ascending node: 208.8791°
argument of perigee: 134.0118°
revolutions per day: 15.07002634
mean anomaly at epoch: 227.5041°
orbit number at epoch: 39418

The dashed part of the orbit path shows where the satellite is in the earth's shadow,  

DLR